Location: Arcones
(41.1182°N, 3.7238°W)
Time: 20:23:38
(UTC+00:00)

Cosmos 1606 Rocket - Pass Details

Date: 11 December 2025
Orbit: 596 x 625 km, 82.5° (Epoch: 12 January)

Event Time Altitude Azimuth Distance (km) Brightness Sun altitude
Rises 17:52:06 0° 188° (S) 2,874 7.4 -12.0°
Reaches altitude 10° 17:54:18 10° 189° (S) 1,977 6.5 -12.4°
Maximum altitude 17:58:42 83° 276° (W) 633 3.6 -13.2°
Drops below altitude 10° 18:03:09 10° 6° (N) 2,004 5.9 -14.0°
Sets 18:05:24 0° 7° (N) 2,917 6.8 -14.4°
